Date,TemperatureHighF,TemperatureAvgF,TemperatureLowF,DewpointHighF,DewpointAvgF,DewpointLowF,HumidityHigh,HumidityAvg,HumidityLow,PressureMaxIn,PressureMinIn,WindSpeedMaxMPH,WindSpeedAvgMPH,GustSpeedMaxMPH,PrecipitationSumIn
2013-8-1,89,81,70,60,52,44,70,39,21,0.00,40.00,15,6,23,0.00
2013-8-2,91,82,70,55,50,44,54,34,19,0.00,40.00,19,7,27,0.00
2013-8-3,92,82,72,55,50,43,52,34,21,0.00,40.00,18,6,26,0.00
2013-8-4,93,84,74,54,49,41,45,30,16,0.00,40.00,11,6,19,0.00
2013-8-5,91,82,73,54,49,43,43,32,19,0.00,40.00,22,8,36,0.00
2013-8-6,87,80,73,57,51,44,56,37,21,0.00,40.00,23,12,33,0.00
2013-8-7,84,76,69,56,52,47,62,44,27,0.00,40.00,23,13,33,0.00
2013-8-8,89,80,69,54,44,36,56,30,17,0.00,40.00,16,9,29,0.00
2013-8-9,90,82,70,46,39,32,31,22,14,0.00,40.00,14,7,21,0.00
2013-8-10,78,74,69,59,53,45,65,48,31,0.00,40.00,15,5,22,0.00
2013-8-11,80,70,62,62,60,56,95,71,45,0.00,40.00,12,5,24,0.00
2013-8-12,86,75,67,62,58,50,81,58,29,0.00,40.00,10,5,24,0.00
2013-8-13,88,77,72,63,53,-100,73,49,26,0.00,40.00,13,5,19,0.00
2013-8-14,89,75,69,59,52,-100,70,48,25,0.00,40.00,10,6,20,0.00
2013-8-15,88,65,66,58,32,-100,77,44,25,0.00,40.00,19,6,31,0.00
2013-8-16,89,76,68,56,46,-100,63,38,20,0.00,40.00,12,6,19,0.00
2013-8-17,91,80,69,54,43,-100,54,30,16,0.00,40.00,10,5,17,0.00
2013-8-18,91,82,72,55,47,42,54,30,17,0.00,40.00,12,6,21,0.00
2013-8-19,89,70,70,54,33,-100,52,35,24,0.00,40.00,16,6,29,0.00
2013-8-20,85,76,67,57,50,-100,65,43,26,0.00,40.00,15,6,21,0.00
2013-8-21,88,77,67,54,46,33,61,37,15,0.00,40.00,9,5,17,0.00
2013-8-22,86,78,66,49,40,31,51,27,14,0.00,40.00,10,6,21,0.00
2013-8-23,84,76,66,59,51,42,65,45,25,0.00,40.00,14,6,23,0.00
2013-8-24,84,74,65,56,50,-100,74,47,29,0.00,40.00,14,7,23,0.00
2013-8-25,86,77,66,57,51,46,66,42,24,0.00,40.00,14,7,26,0.00
2013-8-26,86,76,66,55,51,46,66,43,25,0.00,40.00,14,7,25,0.00
2013-8-27,80,72,66,58,54,49,70,54,35,0.00,40.00,11,6,19,0.00
2013-8-28,76,73,69,64,59,56,84,63,50,0.00,40.00,10,5,14,0.00
2013-8-29,75,68,63,65,63,59,99,85,66,0.00,40.00,9,4,16,0.00
2013-8-30,85,74,64,64,60,54,91,64,35,0.00,40.00,10,5,17,0.00
2013-8-31,90,79,71,61,49,-100,64,39,24,0.00,40.00,12,7,19,0.00